User: anonymous   Login
Location: Melbourne
(37.8170°S, 144.9670°E)
Time: 14:47:52
(UTC+10:00)
Language:

ADEOS Rocket - Orbit

View from above orbital plane
View from above orbital plane
View from above satellite
View from above satellite

Ground track
Ground track

The orbit data is extracted from the following two-line orbital elements,

1 24279U 96046C   17207.24204883 -.00000012 +00000-0 +29889-4 0  9991
2 24279 098.7544 146.3790 0299805 189.0205 304.9147 13.47086537029228
Epoch (UTC): 26 July 2017 05:48:33
Eccentricity: 0.0299805
inclination: 98.7544°
perigee height: 859 km
apogee height: 1306 km
right ascension of ascending node: 146.3790°
argument of perigee: 189.0205°
revolutions per day: 13.47086537
mean anomaly at epoch: 304.9147°
orbit number at epoch: 2922

The dashed part of the orbit path shows where the satellite is in the earth's shadow,  

DLR